Regional Weather Roundup
Issued by NWS Goodland, KS

Home | Current Version | Previous Version | Graphics & Text | Print | Product List | Glossary On
Versions: 1 2 3 4 5 6 7 8 9 10 11 12 13 14 15 16 17 18 19 20 21 22 23 24 25 26 27 28 29 30 31 32 33 34 35 36 37 38 39 40 41 42 43 44 45 46 47 48 49 50
000
ASUS43 KGLD 310810
RWRGLD

GOODLAND FORECAST AREA HOURLY WEATHER ROUNDUP
NATIONAL WEATHER SERVICE DODGE CITY KS
FOR NATIONAL WEATHER SERVICE GOODLAND KS
300 AM CDT FRI JUL 31 2015

...OFFICIAL OBSERVATIONS...

CITY           SKY/WX    TMP DP  RH WIND       PRES   REMARKS
GOODLAND KS    CLEAR     61  60  97 CALM      30.25F
HILL CITY KS   CLEAR     71  68  90 S5        30.20S
IMPERIAL NEB   CLEAR     63  58  83 CALM      30.24R
MCCOOK NEB     CLEAR     67  62  84 CALM      30.21R
AKRON CO       CLEAR     66  55  67 SW9       30.30S
BURLINGTON CO  CLEAR     63  59  87 CALM      30.29R
LIMON CO       CLEAR     55  53  93 CALM      30.36F
$$

...UNOFFICIAL OBSERVATIONS...

CITY           SKY/WX    TMP DP  RH WIND       PRES   REMARKS
COLBY KS       NOT AVBL
HOXIE KS       NOT AVBL
TRIBUNE KS     NOT AVBL
IDALIA CO      NOT AVBL
YUMA CO        NOT AVBL
$$


USA.gov is the U.S. government's official web portal to all federal, state and local government web resources and services.